| time (UTC) | temp F | wind direction | speed knots | gust knots | rain 1hr in | rain 24hr in | rain mn in | humidity % | barometer mb |
| 20260504191702 | 60 | 7 | 3.5 | 7.8 | 0.00 | 0.10 | 0.10 | 86 | 1011.9 |
| 20260504191202 | 61 | 1 | 3.5 | 6.1 | 0.00 | 0.10 | 0.10 | 86 | 1011.8 |
| 20260504190704 | 61 | 11 | 2.6 | 6.1 | 0.00 | 0.10 | 0.10 | 86 | 1011.8 |
| 20260504190202 | 61 | 3 | 3.5 | 7.8 | 0.00 | 0.10 | 0.10 | 87 | 1011.9 |
| 20260504185704 | 61 | 16 | 4.3 | 7.8 | 0.00 | 0.10 | 0.10 | 86 | 1011.9 |
| 20260504185202 | 61 | 20 | 0.9 | 5.2 | 0.00 | 0.10 | 0.10 | 87 | 1011.9 |
| 20260504184948 | 62 | 97 | 0.0 | 0.0 | 0.00 | 0.10 | 0.10 | 87 | 1011.7 |
| 20260504184445 | 62 | 97 | 0.0 | 0.0 | 0.00 | 0.21 | 0.10 | 87 | 1011.8 |
| 20260504183702 | 62 | 97 | 0.0 | 0.0 | 0.00 | 0.21 | 0.10 | 87 | 1011.8 |
| 20260504183449 | 62 | 97 | 0.0 | 0.0 | 0.00 | 0.21 | 0.10 | 87 | 1011.7 |
| 20260504182702 | 62 | 97 | 0.0 | 0.0 | 0.00 | 0.21 | 0.10 | 87 | 1011.8 |
| 20260504182453 | 62 | 97 | 0.0 | 0.0 | 0.00 | 0.21 | 0.10 | 86 | 1011.8 |
| 20260504181702 | 62 | 97 | 0.0 | 0.0 | 0.00 | 0.21 | 0.10 | 86 | 1011.8 |
| 20260504181202 | 62 | 99 | 0.0 | 0.0 | 0.00 | 0.21 | 0.10 | 86 | 1011.8 |
| 20260504180704 | 62 | 97 | 0.0 | 0.0 | 0.00 | 0.21 | 0.10 | 86 | 1011.8 |
| 20260504180202 | 62 | 99 | 0.0 | 0.0 | 0.00 | 0.21 | 0.10 | 87 | 1011.8 |
| 20260504175945 | 62 | 99 | 0.0 | 0.0 | 0.00 | 0.21 | 0.10 | 88 | 1011.8 |
| 20260504175201 | 62 | 100 | 0.0 | 0.0 | 0.00 | 0.21 | 0.10 | 88 | 1011.8 |
| 20260504174951 | 62 | 100 | 0.0 | 0.0 | 0.00 | 0.21 | 0.10 | 88 | 1011.9 |
| 20260504174204 | 62 | 100 | 0.0 | 0.0 | 0.00 | 0.21 | 0.10 | 88 | 1012.0 |
| 20260504173702 | 62 | 100 | 0.0 | 0.0 | 0.00 | 0.21 | 0.10 | 88 | 1011.9 |
| 20260504173203 | 62 | 100 | 0.0 | 0.0 | 0.00 | 0.21 | 0.10 | 88 | 1012.0 |
| 20260504172702 | 62 | 100 | 0.0 | 0.0 | 0.00 | 0.21 | 0.10 | 88 | 1012.0 |
| 20260504172202 | 62 | 100 | 0.0 | 0.0 | 0.00 | 0.22 | 0.10 | 88 | 1012.0 |
| 20260504171704 | 62 | 100 | 0.0 | 0.0 | 0.01 | 0.22 | 0.10 | 88 | 1012.0 |
| 20260504171448 | 62 | 100 | 0.0 | 0.0 | 0.02 | 0.22 | 0.10 | 88 | 1012.0 |
| 20260504170820 | 62 | 100 | 0.0 | 0.0 | 0.02 | 0.22 | 0.10 | 87 | 1011.9 |
| 20260504170813 | 62 | 100 | 0.0 | 0.0 | 0.02 | 0.20 | 0.10 | 88 | 1011.9 |
| 20260504170754 | 62 | 100 | 0.0 | 0.0 | 0.02 | 0.22 | 0.10 | 88 | 1011.9 |
| 20260504150702 | 63 | 49 | 1.7 | 3.5 | 0.02 | 0.14 | 0.02 | 81 | 1012.2 |
| 20260504150202 | 63 | 106 | 0.0 | 3.5 | 0.02 | 0.14 | 0.02 | 84 | 1012.3 |
| 20260504141201 | 64 | 18 | 3.5 | 9.6 | 0.00 | 0.13 | 0.01 | 78 | 1012.4 |
| 20260504140700 | 64 | 35 | 3.5 | 6.1 | 0.00 | 0.13 | 0.01 | 78 | 1012.6 |
| 20260504140229 | 65 | 14 | 5.2 | 6.1 | 0.00 | 0.13 | 0.01 | 79 | 1012.5 |
| 20260504130700 | 64 | 333 | 2.6 | 6.1 | 0.00 | 0.13 | 0.01 | 78 | 1012.9 |
| 20260504130200 | 65 | 348 | 4.3 | 6.1 | 0.00 | 0.13 | 0.01 | 77 | 1012.9 |
| 20260504120159 | 66 | 220 | 3.5 | 5.2 | 0.00 | 0.15 | 0.01 | 72 | 1012.9 |
| 20260504110657 | 65 | 168 | 2.6 | 5.2 | 0.00 | 0.17 | 0.01 | 75 | 1013.2 |
| 20260504110159 | 65 | 269 | 2.6 | 6.1 | 0.00 | 0.17 | 0.01 | 78 | 1013.1 |
| 20260504100156 | 63 | 154 | 2.6 | 5.2 | 0.00 | 0.19 | 0.01 | 80 | 1013.4 |
| 20260504081652 | 60 | 210 | 1.7 | 3.5 | 0.00 | 0.20 | 0.01 | 88 | 1013.3 |
| 20260504081206 | 60 | 234 | 1.7 | 2.6 | 0.00 | 0.20 | 0.01 | 87 | 1013.3 |
| 20260504080953 | 60 | 216 | 0.0 | 3.5 | 0.00 | 0.20 | 0.01 | 88 | 1013.2 |
| 20260504080153 | 60 | 216 | 2.6 | 3.5 | 0.00 | 0.20 | 0.01 | 88 | 1013.1 |
| 20260504070150 | 59 | 212 | 2.6 | 3.5 | 0.00 | 0.20 | 0.01 | 93 | 1012.6 |
| 20260504060149 | 57 | 264 | 2.6 | 4.3 | 0.00 | 0.20 | 0.01 | 94 | 1012.1 |
| 20260504050648 | 53 | 154 | 0.0 | 0.0 | 0.00 | 0.20 | 0.01 | 94 | 1011.9 |
| 20260504050147 | 53 | 154 | 0.0 | 0.0 | 0.00 | 0.20 | 0.01 | 94 | 1011.8 |
| 20260504045647 | 53 | 151 | 0.0 | 0.0 | 0.00 | 0.20 | 0.01 | 94 | 1011.8 |
| 20260504045147 | 53 | 151 | 0.0 | 0.0 | 0.00 | 0.20 | 0.01 | 94 | 1011.7 |
| 20260504045008 | 53 | 151 | 0.0 | 0.0 | 0.00 | 0.20 | 0.01 | 94 | 1011.7 |
| 20260504044959 | 53 | 151 | 0.0 | 0.0 | 0.00 | 0.20 | 0.01 | 94 | 1011.6 |
| 20260504043647 | 53 | 151 | 0.0 | 0.0 | 0.00 | 0.20 | 0.01 | 94 | 1011.6 |
| 20260504043146 | 53 | 151 | 0.0 | 0.0 | 0.00 | 0.20 | 0.01 | 94 | 1011.6 |
| 20260504042929 | 53 | 151 | 0.0 | 0.0 | 0.00 | 0.20 | 0.01 | 94 | 1011.7 |
| 20260504042429 | 54 | 151 | 0.0 | 0.0 | 0.00 | 0.20 | 0.01 | 94 | 1011.7 |
| 20260504041645 | 54 | 151 | 0.0 | 0.0 | 0.00 | 0.20 | 0.01 | 94 | 1011.6 |
| 20260504041445 | 54 | 151 | 0.0 | 0.0 | 0.00 | 0.20 | 0.01 | 94 | 1011.7 |
| 20260504040653 | 54 | 151 | 0.0 | 0.0 | 0.00 | 0.20 | 0.01 | 94 | 1011.7 |
| 20260504040227 | 54 | 149 | 0.0 | 0.0 | 0.00 | 0.20 | 0.01 | 94 | 1011.8 |
| 20260504040214 | 54 | 151 | 0.0 | 0.0 | 0.00 | 0.20 | 0.01 | 94 | 1011.7 |
| 20260504035146 | 54 | 149 | 0.0 | 0.0 | 0.00 | 0.20 | 0.01 | 94 | 1011.7 |
| 20260504034924 | 54 | 149 | 0.0 | 0.0 | 0.00 | 0.20 | 0.01 | 94 | 1011.8 |
| 20260504034430 | 54 | 149 | 0.0 | 0.0 | 0.00 | 0.20 | 0.01 | 94 | 1011.7 |
| 20260504033647 | 54 | 151 | 0.0 | 0.0 | 0.00 | 0.20 | 0.01 | 94 | 1011.7 |
| 20260504033157 | 54 | 149 | 0.0 | 0.0 | 0.00 | 0.20 | 0.01 | 94 | 1011.7 |
| 20260504032941 | 54 | 149 | 0.0 | 0.0 | 0.00 | 0.20 | 0.01 | 94 | 1011.7 |
| 20260504032145 | 54 | 151 | 0.0 | 0.0 | 0.00 | 0.20 | 0.01 | 94 | 1011.7 |
| 20260504031647 | 54 | 151 | 0.0 | 0.0 | 0.00 | 0.20 | 0.01 | 94 | 1011.8 |
| 20260504031144 | 54 | 151 | 0.0 | 0.0 | 0.00 | 0.20 | 0.01 | 94 | 1011.8 |
| 20260504030645 | 54 | 151 | 0.0 | 0.0 | 0.00 | 0.20 | 0.01 | 94 | 1011.9 |
| 20260504030145 | 54 | 149 | 0.0 | 0.0 | 0.00 | 0.20 | 0.01 | 94 | 1011.9 |
| 20260504025924 | 53 | 149 | 0.0 | 0.0 | 0.00 | 0.20 | 0.01 | 94 | 1011.9 |
| 20260504025143 | 53 | 151 | 0.0 | 0.0 | 0.00 | 0.20 | 0.01 | 94 | 1011.9 |
| 20260504024914 | 53 | 151 | 0.0 | 0.0 | 0.00 | 0.20 | 0.01 | 94 | 1011.8 |
| 20260504024144 | 53 | 151 | 0.0 | 0.0 | 0.00 | 0.20 | 0.01 | 94 | 1011.8 |
| 20260504023643 | 53 | 149 | 0.0 | 0.0 | 0.00 | 0.20 | 0.01 | 93 | 1011.8 |
| 20260504023144 | 53 | 148 | 0.0 | 0.0 | 0.00 | 0.20 | 0.01 | 93 | 1011.7 |
| 20260504022643 | 53 | 148 | 0.0 | 0.0 | 0.00 | 0.20 | 0.01 | 94 | 1011.6 |
| 20260504022144 | 53 | 149 | 0.0 | 0.0 | 0.00 | 0.20 | 0.01 | 94 | 1011.6 |
| 20260504021929 | 53 | 149 | 0.0 | 0.0 | 0.00 | 0.20 | 0.01 | 94 | 1011.6 |
| 20260504021142 | 52 | 149 | 0.0 | 0.0 | 0.00 | 0.20 | 0.01 | 93 | 1011.6 |
| 20260504020655 | 52 | 149 | 0.0 | 0.0 | 0.00 | 0.20 | 0.01 | 93 | 1011.6 |
| 20260504020142 | 52 | 149 | 0.0 | 0.0 | 0.00 | 0.20 | 0.01 | 93 | 1011.6 |
| 20260504015643 | 52 | 148 | 0.0 | 0.0 | 0.00 | 0.20 | 0.01 | 93 | 1011.6 |
| 20260504015453 | 52 | 148 | 0.0 | 0.0 | 0.00 | 0.20 | 0.01 | 93 | 1011.7 |
| 20260504015009 | 52 | 148 | 0.0 | 0.0 | 0.00 | 0.20 | 0.01 | 93 | 1011.7 |
| 20260504015003 | 52 | 148 | 0.0 | 0.0 | 0.00 | 0.20 | 0.01 | 93 | 1011.7 |
| 20260504013642 | 52 | 148 | 0.0 | 0.0 | 0.00 | 0.20 | 0.01 | 93 | 1011.7 |
| 20260504013234 | 51 | 149 | 0.0 | 0.0 | 0.00 | 0.20 | 0.01 | 93 | 1011.5 |
| 20260504013206 | 51 | 148 | 0.0 | 0.0 | 0.00 | 0.20 | 0.01 | 93 | 1011.6 |
| 20260504012141 | 51 | 149 | 0.0 | 0.0 | 0.00 | 0.20 | 0.01 | 93 | 1011.7 |
| 20260504011643 | 51 | 148 | 0.0 | 0.0 | 0.00 | 0.20 | 0.01 | 93 | 1011.6 |
| 20260504011143 | 51 | 148 | 0.0 | 0.0 | 0.00 | 0.20 | 0.01 | 93 | 1011.4 |
| 20260504010642 | 52 | 148 | 0.0 | 0.0 | 0.00 | 0.20 | 0.01 | 93 | 1011.5 |
| 20260504010141 | 52 | 149 | 0.0 | 0.0 | 0.00 | 0.20 | 0.01 | 93 | 1011.5 |
| 20260504005642 | 52 | 148 | 0.0 | 0.0 | 0.00 | 0.20 | 0.01 | 93 | 1011.4 |
| 20260504005141 | 52 | 148 | 0.0 | 0.0 | 0.00 | 0.20 | 0.01 | 93 | 1011.5 |
| 20260504004655 | 53 | 148 | 0.0 | 0.0 | 0.00 | 0.20 | 0.01 | 93 | 1011.5 |
| 20260504004140 | 53 | 148 | 0.0 | 0.0 | 0.00 | 0.20 | 0.01 | 93 | 1011.4 |
| 20260504003640 | 53 | 148 | 0.0 | 0.0 | 0.00 | 0.20 | 0.01 | 93 | 1011.4 |
| 20260504003141 | 53 | 148 | 0.0 | 0.0 | 0.00 | 0.20 | 0.01 | 93 | 1011.4 |
| 20260504002640 | 53 | 148 | 0.0 | 0.0 | 0.00 | 0.20 | 0.01 | 93 | 1011.4 |
| 20260504002141 | 53 | 148 | 0.0 | 0.0 | 0.00 | 0.20 | 0.01 | 93 | 1011.5 |
| 20260504001641 | 53 | 148 | 0.0 | 0.0 | 0.00 | 0.20 | 0.01 | 93 | 1011.6 |
| 20260504001140 | 53 | 148 | 0.0 | 0.0 | 0.00 | 0.20 | 0.01 | 93 | 1011.5 |
| 20260504000639 | 53 | 148 | 0.0 | 0.0 | 0.00 | 0.20 | 0.01 | 93 | 1011.4 |
| 20260504000139 | 53 | 148 | 0.0 | 0.0 | 0.00 | 0.20 | 0.01 | 93 | 1011.5 |
| 20260503235639 | 53 | 148 | 0.0 | 0.0 | 0.00 | 0.20 | 0.01 | 93 | 1011.5 |
| 20260503235139 | 53 | 148 | 0.0 | 0.0 | 0.00 | 0.20 | 0.01 | 93 | 1011.5 |
| 20260503234640 | 53 | 148 | 0.0 | 0.0 | 0.00 | 0.20 | 0.01 | 93 | 1011.6 |
| 20260503234139 | 53 | 148 | 0.0 | 0.0 | 0.00 | 0.20 | 0.01 | 93 | 1011.6 |
| 20260503233849 | 53 | 148 | 0.0 | 0.0 | 0.00 | 0.20 | 0.01 | 93 | 1011.7 |
| 20260503233730 | 53 | 148 | 0.0 | 0.0 | 0.00 | 0.20 | 0.01 | 93 | 1011.7 |
| 20260503232638 | 53 | 148 | 0.0 | 0.0 | 0.00 | 0.20 | 0.01 | 93 | 1011.6 |
| 20260503232143 | 53 | 148 | 0.0 | 0.0 | 0.00 | 0.20 | 0.01 | 93 | 1011.5 |
| 20260503231638 | 53 | 148 | 0.0 | 0.0 | 0.00 | 0.20 | 0.01 | 93 | 1011.6 |
| 20260503231139 | 53 | 148 | 0.0 | 0.0 | 0.01 | 0.20 | 0.01 | 93 | 1011.6 |
| 20260503230638 | 53 | 148 | 0.0 | 0.0 | 0.01 | 0.20 | 0.01 | 92 | 1011.6 |
| 20260503230138 | 53 | 148 | 0.0 | 0.0 | 0.01 | 0.20 | 0.01 | 92 | 1011.6 |
| 20260503225639 | 53 | 148 | 0.0 | 0.0 | 0.01 | 0.20 | 0.01 | 93 | 1011.7 |
| 20260503225138 | 53 | 148 | 0.0 | 0.0 | 0.01 | 0.20 | 0.01 | 92 | 1011.8 |
| 20260503224636 | 53 | 148 | 0.0 | 0.0 | 0.01 | 0.20 | 0.01 | 92 | 1011.8 |
| 20260503224137 | 53 | 149 | 0.0 | 0.0 | 0.01 | 0.20 | 0.01 | 92 | 1011.9 |
| 20260503223637 | 53 | 148 | 0.0 | 0.0 | 0.01 | 0.21 | 0.01 | 92 | 1011.7 |
| 20260503223137 | 53 | 148 | 0.0 | 0.0 | 0.01 | 0.21 | 0.01 | 92 | 1011.7 |
| 20260503222642 | 53 | 149 | 0.0 | 0.0 | 0.01 | 0.22 | 0.01 | 92 | 1011.8 |
| 20260503222434 | 53 | 148 | 0.0 | 0.0 | 0.01 | 0.22 | 0.01 | 92 | 1011.8 |
| 20260503221638 | 54 | 148 | 0.0 | 0.0 | 0.01 | 0.23 | 0.01 | 92 | 1011.7 |
| 20260503221137 | 54 | 148 | 0.0 | 0.0 | 0.00 | 0.23 | 0.00 | 92 | 1011.8 |
| 20260503220637 | 54 | 148 | 0.0 | 0.0 | 0.00 | 0.24 | 0.00 | 92 | 1011.7 |
| 20260503220136 | 54 | 148 | 0.0 | 0.0 | 0.00 | 0.24 | 0.00 | 92 | 1011.8 |
| 20260503215733 | 54 | 148 | 0.0 | 0.0 | 0.00 | 0.24 | 0.24 | 92 | 1011.8 |
| 20260503215149 | 54 | 148 | 0.0 | 0.0 | 0.00 | 0.25 | 0.24 | 91 | 1011.8 |
| 20260503214955 | 54 | 149 | 0.0 | 0.0 | 0.00 | 0.26 | 0.24 | 92 | 1011.7 |
| 20260503214151 | 54 | 147 | 0.0 | 0.0 | 0.00 | 0.26 | 0.24 | 91 | 1011.6 |
| 20260503214053 | 55 | 148 | 0.0 | 0.0 | 0.00 | 0.27 | 0.24 | 92 | 1011.9 |
| 20260503213721 | 55 | 147 | 0.0 | 0.0 | 0.00 | 0.27 | 0.24 | 92 | 1011.7 |
| 20260503212713 | 55 | 142 | 0.0 | 0.0 | 0.00 | 0.28 | 0.24 | 91 | 1011.8 |
| 20260503212659 | 55 | 147 | 0.0 | 0.0 | 0.00 | 0.28 | 0.24 | 92 | 1011.9 |
| 20260503211918 | 55 | 142 | 0.0 | 0.0 | 0.00 | 0.28 | 0.24 | 91 | 1011.7 |
| 20260503211137 | 55 | 142 | 0.0 | 0.0 | 0.00 | 0.28 | 0.24 | 92 | 1011.7 |
| 20260503210634 | 55 | 142 | 0.0 | 0.0 | 0.00 | 0.29 | 0.24 | 92 | 1011.7 |
| 20260503210135 | 56 | 142 | 0.0 | 0.0 | 0.00 | 0.29 | 0.24 | 92 | 1011.6 |
| 20260503205636 | 56 | 142 | 0.0 | 0.0 | 0.00 | 0.29 | 0.24 | 92 | 1011.5 |
| 20260503205135 | 56 | 142 | 0.0 | 0.0 | 0.00 | 0.30 | 0.24 | 91 | 1011.5 |
| 20260503204648 | 56 | 142 | 0.0 | 0.0 | 0.00 | 0.30 | 0.24 | 91 | 1011.6 |
| 20260503204502 | 56 | 142 | 0.0 | 0.9 | 0.00 | 0.31 | 0.24 | 91 | 1011.6 |
| 20260503203635 | 56 | 142 | 0.0 | 2.6 | 0.00 | 0.31 | 0.24 | 91 | 1011.6 |
| 20260503203150 | 56 | 142 | 0.0 | 4.3 | 0.00 | 0.31 | 0.24 | 92 | 1011.6 |
| 20260503202635 | 56 | 142 | 1.7 | 4.3 | 0.00 | 0.32 | 0.24 | 92 | 1011.6 |
| 20260503202422 | 56 | 144 | 2.6 | 4.3 | 0.00 | 0.33 | 0.24 | 91 | 1011.6 |
| 20260503201634 | 56 | 145 | 3.5 | 4.3 | 0.00 | 0.34 | 0.24 | 91 | 1011.6 |
| 20260503201134 | 56 | 148 | 2.6 | 3.5 | 0.00 | 0.37 | 0.24 | 91 | 1011.6 |
| 20260503200634 | 56 | 148 | 2.6 | 3.5 | 0.00 | 0.37 | 0.24 | 91 | 1011.6 |
| 20260503200133 | 56 | 148 | 0.9 | 3.5 | 0.00 | 0.37 | 0.24 | 91 | 1011.6 |
| 20260503195634 | 56 | 151 | 1.7 | 3.5 | 0.00 | 0.37 | 0.24 | 91 | 1011.7 |
| 20260503195133 | 56 | 151 | 1.7 | 3.5 | 0.00 | 0.40 | 0.24 | 91 | 1011.6 |
| 20260503194634 | 56 | 154 | 2.6 | 3.5 | 0.00 | 0.40 | 0.24 | 91 | 1011.6 |
| 20260503194150 | 56 | 165 | 0.0 | 1.7 | 0.11 | 0.40 | 0.24 | 91 | 1011.6 |
| 20260503193646 | 56 | 165 | 0.0 | 1.7 | 0.11 | 0.40 | 0.24 | 91 | 1011.5 |
| 20260503193134 | 56 | 165 | 0.0 | 2.6 | 0.11 | 0.40 | 0.24 | 91 | 1011.5 |
| 20260503192913 | 56 | 165 | 0.9 | 3.5 | 0.11 | 0.40 | 0.24 | 91 | 1011.4 |